Location: Bushey
(51.6333°N, 0.3667°W)
Time: 18:58:49
(UTC+00:00)

Cosmos 2333 - Pass Details

Date: 03 March 2021
Orbit: 829 x 866 km, 70.9° (Epoch: 17 April)

Event Time Altitude Azimuth Distance (km) Brightness Sun altitude
Rises 20:14:19 0° 209° (SSW) 3,379 7.4 -23.5°
Reaches altitude 10° 20:16:44 10° 210° (SSW) 2,453 6.7 -23.9°
Maximum altitude 20:22:23 87° 299° (WNW) 856 4.1 -24.7°
Drops below altitude 10° 20:28:08 10° 30° (NNE) 2,495 6.6 -25.5°
Sets 20:30:37 0° 31° (NNE) 3,440 7.3 -25.9°
